This demonstration page uses our WeatherBlox Daily Observations layout. Learn more.

Left ArrowRight Arrow

41.55636, -103.73856

Hourly Observations for December 16, 2017

Temp ( °F °C ) Dew Point ( °F °C ) Humidity (%) Winds ( mph kmh ) Pressure ( in mb ) Visibility ( mi km ) Precip ( " mm )
12:53 am 00:53 Clear 36 2.2 8 -13.3 31 31 NW 5 7 29.71 1006 10 16 N/A
1:53 am 01:53 Clear 36 2.2 9 -12.8 32 32 NW 6 9 29.72 1006 10 16 N/A
2:53 am 02:53 Clear 31 -0.6 9 -12.8 40 40 NNE 3 6 29.74 1007 10 16 N/A
3:53 am 03:53 Clear 35 1.7 8 -13.3 32 32 N N/A 29.75 1007 10 16 N/A
4:53 am 04:53 Clear 32 undefined 10 -12.2 40 40 N 8 13 29.78 1008 10 16 N/A
5:53 am 05:53 Clear 37 2.8 11 -11.7 34 34 NNW 8 13 29.80 1009 10 16 N/A
6:53 am 06:53 Clear 32 undefined 12 -11.1 43 43 WNW 6 9 29.84 1011 10 16 N/A
7:53 am 07:53 Sunny 38 3.3 17 -8.3 43 43 NNE 8 13 29.84 1010 10 16 N/A
8:53 am 08:53 Sunny 39 3.9 18 -7.8 43 43 W 3 6 29.86 1011 10 16 N/A
9:53 am 09:53 Sunny 41 5 22 -5.6 47 47 NE 15 24 29.88 1012 10 16 N/A
10:53 am 10:53 Sunny 42 5.6 24 -4.4 49 49 NE 10 17 29.90 1013 10 16 N/A
11:53 am 11:53 Sunny 43 6.1 26 -3.3 51 51 ENE 8 13 29.89 1012 10 16 N/A
12:53 pm 12:53 Sunny 43 6.1 29 -1.7 58 58 ENE 12 19 29.88 1012 10 16 N/A
1:53 pm 13:53 Sunny 41 5 29 -1.7 62 62 NE 16 26 29.89 1012 10 16 N/A
2:41 pm 14:41 Mostly Cloudy 40 4.4 30 -1.1 68 68 ENE 15 24 29.94 1014 10 16 N/A
2:53 pm 14:53 Mostly Cloudy 39 3.9 30 -1.1 70 70 ENE 15 24 29.92 1013 10 16 N/A
3:53 pm 15:53 Cloudy 37 2.8 29 -1.7 73 73 ENE 12 19 29.94 1014 10 16 N/A
4:53 pm 16:53 Cloudy 36 2.2 29 -1.7 76 76 ENE 12 19 29.99 1016 10 16 N/A
5:53 pm 17:53 Cloudy 35 1.7 28 -2.2 76 76 ENE 13 20 30.00 1016 10 16 N/A
6:53 pm 18:53 Cloudy 35 1.7 28 -2.2 76 76 ENE 13 20 30.04 1017 10 16 N/A
7:53 pm 19:53 Cloudy 34 1.1 28 -2.2 79 79 ENE 13 20 30.03 1017 10 16 N/A
8:53 pm 20:53 Cloudy 34 1.1 27 -2.8 76 76 E 12 19 30.03 1017 10 16 N/A
9:53 pm 21:53 Cloudy 33 0.6 27 -2.8 78 78 ENE 8 13 30.05 1018 10 16 N/A
10:53 pm 22:53 Cloudy 33 0.6 27 -2.8 78 78 ENE 10 17 30.04 1017 10 16 N/A
11:43 pm 23:43 Cloudy 32 undefined 27 -2.8 82 82 E 9 15 30.12 1020 10 16 N/A
11:53 pm 23:53 Cloudy 32 undefined 27 -2.8 82 82 E 8 13 30.03 1017 10 16 N/A

Powered by AerisWeather